Barter Island, AK

6:08 PM AKDT on April 26, 2018 (GMT -0800)
Barter Island LRRS

Weather History for PABA - June, 2014

Change the Weather History Date:

Wednesday, June 18, 2014

  Actual Average Record
Temperature  
Mean Temperature 34 °F -  
Max Temperature 34 °F 36 °F 54 °F (2004)
Min Temperature 33 °F 30 °F 28 °F (2002)
Degree Days  
Heating Degree Days 31    
Moisture  
Dew Point 34 °F    
Average Humidity 97    
Maximum Humidity 100    
Minimum Humidity 93    
Precipitation  
Precipitation 0.00 in - - ()
Sea Level Pressure  
Sea Level Pressure 29.66 in    
Wind  
Wind Speed 13 mph (ENE)    
Max Wind Speed 17 mph    
Max Gust Speed -    
Visibility 1 miles    
Events Fog , Rain    
Averages and records for this station are not official NWS values.
T = Trace of Precipitation, MM = Missing Value Source: NWS Daily Summary

Daily Weather History Graph

Daily Weather History Graph

Search for Another Location

Airport or City:

Astronomy

Dec. 31, 1969 Rise Set
Actual Time Sun does not set Sun does not set
Civil Twilight Sun does not set Sun does not set
Nautical Twilight Sun does not set Sun does not set
Astronomical Twilight Sun does not set Sun does not set
Moon 1:19 AM AKDT (6/18) 12:16 PM AKDT (6/18)
Length of Visible Light 24h 00m
Length of Day
24h 00m
Waning Gibbous, 61% of the Moon is Illuminated
Jun 18
Waning Gibbous
Jun 19
Last Quarter
Jun 27
New
Jul 5
First Quarter
Jul 12
Full

Hourly Weather History & Observations

Time (AKDT) Temp. Windchill Dew Point Humidity Pressure Visibility Wind Dir Wind Speed Gust Speed Precip Events Conditions
12:01 AM 34.0 °F 23.4 °F 33.1 °F 96% 29.54 in 0.2 mi East 17.3 mph - 0.00 in Fog , Rain Light Rain
1:01 AM 34.0 °F 24.6 °F 33.1 °F 96% 29.54 in 0.2 mi East 13.8 mph - 0.00 in Fog , Rain Light Rain
2:01 AM 34.0 °F 25.0 °F 33.1 °F 96% 29.53 in 0.2 mi ENE 12.7 mph - 0.00 in Fog , Rain Light Rain
2:48 AM 33.8 °F 24.8 °F 33.8 °F 100% 29.53 in 0.8 mi ENE 12.7 mph - 0.00 in   Overcast
2:53 AM 33.8 °F 24.8 °F 33.8 °F 100% 29.53 in 1.2 mi ENE 12.7 mph - 0.00 in   Overcast
3:01 AM 33.8 °F 25.8 °F 33.8 °F 100% 29.53 in 2.5 mi ENE 10.4 mph - 0.00 in   Overcast
3:09 AM 33.8 °F 25.3 °F 33.8 °F 100% 29.53 in 4.0 mi ENE 11.5 mph - 0.00 in   Overcast
3:36 AM 33.8 °F 25.3 °F 33.8 °F 100% 29.54 in 1.8 mi East 11.5 mph - 0.00 in   Overcast
3:51 AM 33.8 °F 24.8 °F 33.8 °F 100% 29.54 in 0.8 mi ENE 12.7 mph - 0.00 in   Overcast
4:01 AM 33.8 °F 26.4 °F 33.8 °F 100% 29.54 in 0.5 mi ENE 9.2 mph - 0.00 in Fog Fog
4:12 AM 33.8 °F 26.4 °F 33.8 °F 100% 29.54 in 0.2 mi ENE 9.2 mph - 0.00 in Fog Fog
5:01 AM 34.0 °F 26.0 °F 33.1 °F 96% 29.55 in 0.2 mi ENE 10.4 mph - 0.00 in Fog , Rain Light Rain
6:01 AM 34.0 °F 26.6 °F 33.1 °F 96% 29.56 in 0.2 mi ENE 9.2 mph - 0.00 in Fog , Rain Light Rain
7:01 AM 34.0 °F 28.8 °F 33.1 °F 96% 29.57 in 0.2 mi ENE 5.8 mph - 0.00 in Fog , Rain Light Rain
8:01 AM 34.0 °F 28.0 °F 33.1 °F 96% 29.58 in 0.2 mi East 6.9 mph - 0.00 in Fog , Rain Light Rain
9:01 AM 34.0 °F 28.0 °F 33.1 °F 96% 29.59 in 0.2 mi ENE 6.9 mph - 0.00 in Fog , Rain Light Rain
10:01 AM 35.1 °F 26.4 °F 34.0 °F 96% 29.60 in 0.2 mi East 12.7 mph - 0.00 in Fog , Rain Light Rain
11:01 AM 34.0 °F 25.0 °F 33.1 °F 96% 29.61 in 0.2 mi East 12.7 mph - 0.00 in Fog Fog
12:01 PM 34.0 °F 23.4 °F 33.1 °F 96% 29.62 in 0.2 mi East 17.3 mph - 0.00 in Fog , Rain Light Rain
1:01 PM 34.0 °F 24.2 °F 33.1 °F 96% 29.63 in 0.2 mi East 15.0 mph - 0.00 in Fog , Rain Light Rain
1:58 PM 35.6 °F 25.9 °F 33.8 °F 93% 29.64 in 0.5 mi East 16.1 mph - 0.00 in Fog Fog
2:01 PM 35.1 °F 25.2 °F 34.0 °F 96% 29.65 in 0.5 mi East 16.1 mph - 0.00 in Fog Fog
2:15 PM 35.6 °F 26.2 °F 33.8 °F 93% 29.65 in 0.2 mi East 15.0 mph - 0.00 in Fog Fog
3:01 PM 35.1 °F 25.5 °F 34.0 °F 96% 29.66 in 0.2 mi East 15.0 mph - 0.00 in Fog , Rain Light Rain
3:51 PM 35.6 °F 26.2 °F 33.8 °F 93% 29.68 in 0.5 mi East 15.0 mph - 0.00 in Fog Fog
4:01 PM 35.6 °F 25.9 °F 33.8 °F 93% 29.68 in 0.2 mi East 16.1 mph - 0.00 in Fog , Rain Light Rain
5:01 PM 35.1 °F 25.2 °F 34.0 °F 96% 29.70 in 0.2 mi East 16.1 mph - 0.00 in Fog Fog
6:01 PM 35.6 °F 26.2 °F 33.8 °F 93% 29.71 in 0.5 mi East 15.0 mph - 0.00 in Fog Fog
6:19 PM 35.6 °F 26.6 °F 33.8 °F 93% 29.71 in 0.8 mi East 13.8 mph - 0.00 in   Overcast
6:44 PM 35.6 °F 26.2 °F 33.8 °F 93% 29.72 in 0.2 mi East 15.0 mph - N/A Fog Fog
6:51 PM 35.6 °F 25.9 °F 33.8 °F 93% 29.72 in 0.5 mi East 16.1 mph - N/A Fog Fog
7:01 PM 35.6 °F 25.9 °F 33.8 °F 93% 29.72 in 0.8 mi East 16.1 mph - N/A   Overcast
7:16 PM 35.6 °F 26.6 °F 33.8 °F 93% 29.73 in 0.5 mi East 13.8 mph - N/A Fog Fog
7:25 PM 33.8 °F 24.8 °F 33.8 °F 100% 29.73 in 0.2 mi East 12.7 mph - N/A Fog Fog
8:01 PM 34.0 °F 25.5 °F 33.1 °F 96% 29.74 in 0.2 mi ENE 11.5 mph - N/A Fog , Rain Light Rain
8:28 PM 33.8 °F 24.8 °F 33.8 °F 100% 29.75 in 0.5 mi East 12.7 mph - 0.00 in Fog , Rain Light Rain
8:42 PM 33.8 °F 24.8 °F 33.8 °F 100% 29.75 in 0.8 mi East 12.7 mph - 0.00 in   Overcast
9:16 PM 33.8 °F 24.8 °F 33.8 °F 100% 29.76 in 0.8 mi East 12.7 mph - N/A   Mist
9:53 PM 33.8 °F 25.3 °F 33.8 °F 100% 29.76 in 0.5 mi East 11.5 mph - N/A Fog Fog
10:01 PM 34.0 °F 25.5 °F 33.1 °F 96% 29.77 in 0.5 mi East 11.5 mph - N/A Fog Fog
10:18 PM 33.8 °F 25.3 °F 33.8 °F 100% 29.77 in 0.8 mi East 11.5 mph - 0.00 in   Overcast
10:25 PM 33.8 °F 25.3 °F 33.8 °F 100% 29.78 in 1.0 mi East 11.5 mph - 0.00 in   Overcast
10:47 PM 33.8 °F 25.8 °F 33.8 °F 100% 29.78 in 0.8 mi East 10.4 mph - 0.00 in   Overcast
11:01 PM 34.0 °F 26.0 °F 33.1 °F 96% 29.78 in 0.8 mi East 10.4 mph - 0.00 in   Overcast
11:10 PM 33.8 °F 26.4 °F 33.8 °F 100% 29.79 in 0.5 mi East 9.2 mph - 0.00 in Fog Fog
11:36 PM - - - N/A% 29.79 in 0.8 mi East 9.2 mph - 0.00 in   Overcast
11:44 PM - - - N/A% 29.79 in 0.5 mi ENE 8.1 mph - 0.00 in   Overcast